THAICOM 4

Last updated on Thu Jul 03 2025 00:02:44 GMT+0000 (Coordinated Universal Time)

1 28786U 05028A 25183.09045818 -.00000357 00000+0 00000+0 0 9994 2 28786 0.0208 22.3402 0002508 75.0941 335.0079 1.00269497 48734
UTC large
Height (km)
Speed (km/s)
/
Latitude / Longitude
Inclination (degrees)
Orbital Period (minutes)
Azimuth
Elevation
Range (km)
Doppler Factor

Next 0 passes for location: London (51.5072 / 0.1276)

Sorry there are no passes over London.